Location: ???????????
(55.5758°N, 38.4970°E)
Time: 19:09:56
(UTC+00:00)

ADEOS Rocket - Pass Details

Date: 15 November 2025
Orbit: 859 x 1304 km, 98.7° (Epoch: 14 December)

Event Time Altitude Azimuth Distance (km) Brightness Sun altitude
Rises 01:58:43 0° 15° (NNE) 3,815 6.3 -25.3°
Reaches altitude 10° 02:01:11 10° 10° (N) 2,919 5.6 -24.9°
Maximum altitude 02:07:34 50° 298° (WNW) 1,441 3.5 -24.0°
Enters shadow 02:08:54 45° 266° (W) 1,555 3.5 -23.9°
